Regional Weather Roundup
Issued by NWS Charleston, SC

Current Version | Previous Version | Graphics & Text | Print | Product List | Glossary On
Versions: 1 2 3 4 5 6 7 8 9 10 11 12 13 14 15 16 17 18 19 20 21 22 23 24 25 26 27 28 29 30 31 32 33 34 35 36 37 38 39 40 41 42 43 44 45 46 47 48 49 50
000
ASUS42 KCHS 252225
RWRCHS

REGIONAL WEATHER ROUNDUP
NATIONAL WEATHER SERVICE CHARLESTON SC
500 PM EST SUN JAN 25 2015

NOTE: "FAIR" INDICATES FEW OR NO CLOUDS BELOW 12,000 FEET WITH NO
SIGNIFICANT WEATHER AND/OR OBSTRUCTIONS TO VISIBILITY.

NOT ALL STATIONS ARE QUALITY CONTROLLED BY THE NATIONAL
WEATHER SERVICE. USE DATA WITH CAUTION...ESPECIALLY
DEWPOINT OBSERVATIONS.

SCZ027-030-031-034>040-042>050-252300-
...SOUTHEAST SOUTH CAROLINA...

CITY           SKY/WX    TMP DP  RH WIND       PRES   REMARKS
N CHARLESTON   PTCLDY    53  35  50 S15       29.88F
WATERFRONT PRK   N/A     52 N/A N/A S13G18      N/A
MOUNT PLEASANT FAIR     N/A N/A N/A S8G16     29.88F
PINOPOLIS      NOT AVBL
MONCKS CORNER  FAIR      55  37  50 S10       29.86S
SUMMERVILLE    FAIR      59  37  44 S7G16     29.87S
BEAUFORT MCAS  CLEAR     54  41  61 S9        29.87F
BEAUFORT ARPT  FAIR      52  43  71 S7        29.87F
HILTON HEAD IS CLEAR     54  41  62 S8        29.90F
WALTERBORO     CLEAR     55  36  47 SE10      29.85F
ALLENDALE      FAIR      59  32  36 VRB5      29.83S

...SOUTHERN MIDLANDS AND PEE DEE...

CITY           SKY/WX    TMP DP  RH WIND       PRES   REMARKS
GEORGETOWN     NOT AVBL
KINGSTREE      NOT AVBL
ORANGEBURG     CLEAR     59  30  33 S10       29.82F
BARNWELL       FAIR      59  32  36 SW7       29.83S
AIKEN          FAIR      57  32  38 S10       29.84S
MANNING        NOT AVBL
COLUMBIA       CLEAR     60  31  33 S12       29.80F
SUMTER         CLEAR     58  34  41 SE10      29.81F
FLORENCE       CLEAR     58  33  39 S12       29.82F
MYRTLE BEACH   CLEAR     52  36  54 S10       29.91F
N MYRTLE BEACH CLEAR     51  38  60 S8        29.89F

$$

GAZ063-065-086>088-099>101-113>116-118-119-134>141-150-252300-
...SOUTHEAST GEORGIA...

CITY           SKY/WX    TMP DP  RH WIND       PRES   REMARKS
SAVANNAH ARPT  PTCLDY    57  38  48 S15       29.87F
HUNTER AAF     CLEAR     56  43  61 S8        29.86F
FORT STEWART   CLEAR     61  29  30 SW12      29.85F
STATESBORO     CLEAR     59  33  37 SW5       29.85S
SYLVANIA       CLEAR     59  34  38 SW9       29.85S
CLAXTON        FAIR      59  34  38 SW3       29.86S

...CSRA...CENTRAL AND FAR SOUTHEAST GEORGIA...

CITY           SKY/WX    TMP DP  RH WIND       PRES   REMARKS
THOMSON        CLEAR     60  35  39 S7        29.84F
AUGUSTA-BUSH   CLEAR     60  28  29 SW8       29.82F
AUGUSTA-DANIEL CLEAR     60  28  29 SW14      29.81F
SWAINSBORO     FAIR      61  10  13 S7        29.84F
VIDALIA        CLEAR     59  34  38 SW7       29.85F
EASTMAN        FAIR      60  34  38 SW7       29.87S
HAZLEHURST     FAIR      60  34  37 SW7       29.86S
ALMA           SUNNY     60  29  30 SW9       29.87F
WAYCROSS       SUNNY     63  35  35 SW13      29.88F
JESUP          FAIR      63  36  36 SW3       29.88F
BAXLEY         FAIR      61  32  33 SW5       29.87S
BRUNSWICK      CLEAR     61  34  36 S8        29.90F
SAINT SIMONS   CLEAR     55  43  63 S8        29.91F

$$

SCZ027-028-034-036>038-045-046-048>050-GAZ119-141-252300-
...LAKE AND SUPPLEMENTAL COASTAL OBSERVATIONS...

STATION/POSITION TIME  TEMP    WIND        PRES    WAVE   SWELL
                       AIR SEA DIR/SP/G            HT/PER HT/PER/DIR
                 (UTC) (F)     (DEG/KT/KT) (MB)    (FT/S) (FT/S/D)
UPR LAKE MARION  NOT AVBL
WINYAH BAY       2200   52     160/  8     1011.0S
LAKE MURRAY      2100   58     190/  9/ 10 1008.5F
ACE BASIN NERRS  NOT AVBL
FORT PULASKI     2200   53 54  170/  8/ 13 1012.3F
SAPELO ISLAND    2200   56     150/  8     1012.0F

$$

ANZ835-935-AMZ111-154-330-350-352-354-370-450-454-472-252300-
...C-MAN AND BUOY OBSERVATIONS...

STATION/POSITION TIME  TEMP    WIND        PRES    WAVE   SWELL
                       AIR SEA DIR/SP/G            HT/PER HT/PER/DIR
                 (UTC) (F)     (DEG/KT/KT) (MB)    (FT/S) (FT/S/D)
BUOY 41004       2200   58 69  200/ 12/ 14 1012.3F   2/ 8   2/ 8
BUOY 41008       2200   53 55  180/ 12/ 14 1012.9F   1/ 3
FOLLY BEACH CMAN 2200   53     200/ 14/ 16 1012.6F
CAPERS NEARSHORE 2100   53     190/  8/ 10   N/A
FRIPP NEARSHORE  2100   53     200/ 16/ 17   N/A


STATION/POSITION TIME  TEMP    WIND        PRES    WAVE   SWELL
                       AIR SEA DIR/SP/G            HT/PER HT/PER/DIR
                 (UTC) (F)     (DEG/KT/KT) (MB)    (FT/S) (FT/S/D)
5E ST. MARYS GA  2200      58                N/A     2/ 3
FRYING PAN BUOY  2200   55 67  210/  8/ 12 1013.5F   3/ 7   3/190/ 7
BUOY 41025       2200   51 69  160/  2/  6 1012.8F   3/10   3/160/10
CAPE LOOKOUT NC  2200   49     190/  7/  9 1012.8F
BUOY 41002       2058   65 72  260/ 12/ 14 1013.8    7/ 8   7/250/ 8
BUOY 41010       2200   66 76  260/  6/ 10 1015.3R   4/ 6   5/340/ 6
ST AUGUSTINE FL  2200   56     160/ 10/ 11 1014.4F


$$


USA.gov is the U.S. government's official web portal to all federal, state and local government web resources and services.